Cincinnati, OH

1:40 AM EDT on April 23, 2017 (GMT -0400)
Cincinnati Municipal-Lunken

Weather History for KLUK - May, 2013

Change the Weather History Date:

Wednesday, May 1, 2013

  Actual Average Record
Temperature  
Mean Temperature 65 °F -  
Max Temperature 84 °F 71 °F 87 °F (1951)
Min Temperature 48 °F 48 °F 30 °F (2005)
Growing Degree Days 15 (Base 50)    
Moisture  
Dew Point 53 °F    
Average Humidity 85    
Maximum Humidity 100    
Minimum Humidity 41    
Precipitation  
Precipitation 0.00 in - - ()
Sea Level Pressure  
Sea Level Pressure 30.12 in    
Wind  
Wind Speed 1 mph (East)    
Max Wind Speed 9 mph    
Max Gust Speed -    
Visibility 6 miles    
Events Fog    
Averages and records for this station are not official NWS values.
T = Trace of Precipitation, MM = Missing Value Source: NWS Daily Summary

Daily Weather History Graph

Daily Weather History Graph

Search for Another Location

Airport or City:

Trip Planner

Search our weather history database for the weather conditions in past years. The results will help you decide how hot, cold, wet, or windy it might be!

Date:

Astronomy

May. 01, 2013 Rise Set
Actual Time 6:39 AM EDT 8:30 PM EDT
Civil Twilight 6:10 AM EDT 8:59 PM EDT
Nautical Twilight 5:35 AM EDT 9:35 PM EDT
Astronomical Twilight 4:57 AM EDT 10:12 PM EDT
Moon 1:39 AM EDT (5/1) 12:16 PM EDT (5/1)
Length of Visible Light 14h 49m
Length of Day
13h 51m
Waning Gibbous, 59% of the Moon is Illuminated
May 1
Waning Gibbous
May 2
Last Quarter
May 9
New
May 18
First Quarter
May 25
Full

Hourly Weather History & Observations

Time (EDT) Temp. Heat Index Dew Point Humidity Pressure Visibility Wind Dir Wind Speed Gust Speed Precip Events Conditions
12:53 AM 53.6 °F - 53.6 °F 100% 30.08 in 10.0 mi Calm Calm - N/A   Clear
1:53 AM 53.1 °F - 53.1 °F 100% 30.08 in 9.0 mi Calm Calm - N/A   Clear
2:34 AM 51.8 °F - 51.8 °F 100% 30.08 in 1.8 mi Calm Calm - N/A   Clear
2:43 AM 51.8 °F - 51.8 °F 100% 30.08 in 3.0 mi Calm Calm - N/A   Clear
2:53 AM 52.0 °F - 52.0 °F 100% 30.08 in 8.0 mi Calm Calm - N/A   Clear
3:53 AM 52.0 °F - 52.0 °F 100% 30.08 in 5.0 mi Calm Calm - N/A   Clear
4:03 AM 51.8 °F - 51.8 °F 100% 30.09 in 1.5 mi Calm Calm - N/A   Clear
4:18 AM 50.0 °F - 50.0 °F 100% 30.10 in 0.8 mi Calm Calm - N/A   Mist
4:21 AM 50.0 °F - 50.0 °F 100% 30.10 in 1.2 mi Calm Calm - N/A   Partly Cloudy
4:23 AM 51.8 °F - 51.8 °F 100% 30.10 in 5.0 mi Calm Calm - N/A   Clear
4:30 AM 51.8 °F - 51.8 °F 100% 30.10 in 1.5 mi Calm Calm - N/A   Clear
4:38 AM 51.8 °F - 51.8 °F 100% 30.10 in 0.5 mi Calm Calm - N/A Fog Fog
4:48 AM 50.0 °F - 50.0 °F 100% 30.11 in 2.0 mi Calm Calm - N/A   Clear
4:53 AM 50.0 °F - 50.0 °F 100% 30.10 in 9.0 mi Calm Calm - N/A   Clear
5:04 AM 51.8 °F - 51.8 °F 100% 30.11 in 1.8 mi Calm Calm - N/A   Clear
5:12 AM 51.8 °F - 51.8 °F 100% 30.11 in 3.0 mi Calm Calm - N/A   Clear
5:17 AM 51.8 °F - 51.8 °F 100% 30.11 in 1.8 mi Calm Calm - N/A   Clear
5:47 AM 48.2 °F - 48.2 °F 100% 30.12 in 2.0 mi Calm Calm - N/A   Partly Cloudy
5:53 AM 50.0 °F - 48.2 °F 94% 30.12 in 1.5 mi Calm Calm - N/A   Partly Cloudy
6:00 AM 48.2 °F - 48.2 °F 100% 30.12 in 3.0 mi Calm Calm - N/A   Partly Cloudy
6:07 AM 48.2 °F - 48.2 °F 100% 30.12 in 1.5 mi Calm Calm - N/A   Partly Cloudy
6:09 AM 48.2 °F - 48.2 °F 100% 30.12 in 0.8 mi Calm Calm - N/A   Mist
6:22 AM 48.2 °F - 48.2 °F 100% 30.13 in 1.5 mi Calm Calm - N/A   Partly Cloudy
6:29 AM 48.2 °F - 48.2 °F 100% 30.13 in 10.0 mi Calm Calm - N/A   Clear
6:33 AM 48.2 °F - 48.2 °F 100% 30.13 in 1.5 mi Calm Calm - N/A   Clear
6:51 AM 48.2 °F - 48.2 °F 100% 30.13 in 5.0 mi Calm Calm - N/A Fog Patches of Fog
6:53 AM 48.2 °F - 48.2 °F 100% 30.13 in 5.0 mi Calm Calm - N/A Fog Patches of Fog
7:53 AM 53.1 °F - 53.1 °F 100% 30.15 in 10.0 mi Calm Calm - N/A Fog Patches of Fog
8:53 AM 57.2 °F - 55.4 °F 94% 30.18 in 10.0 mi Calm Calm - N/A   Clear
9:53 AM 64.9 °F - 57.9 °F 78% 30.18 in 10.0 mi Calm Calm - N/A   Clear
10:53 AM 71.6 °F - 60.8 °F 69% 30.18 in 10.0 mi Calm Calm - N/A   Clear
11:53 AM 75.9 °F - 60.1 °F 58% 30.17 in 10.0 mi Calm Calm - N/A   Clear
12:53 PM 79.0 °F - 55.9 °F 45% 30.16 in 10.0 mi SE 4.6 mph - N/A   Clear
1:53 PM 81.0 °F 81.0 °F 57.0 °F 44% 30.15 in 10.0 mi SSE 4.6 mph - N/A   Partly Cloudy
2:53 PM 82.0 °F 81.6 °F 55.9 °F 41% 30.15 in 10.0 mi South 4.6 mph - N/A   Scattered Clouds
3:53 PM 82.0 °F 81.6 °F 55.9 °F 41% 30.14 in 10.0 mi ENE 5.8 mph - N/A   Mostly Cloudy
4:53 PM 82.0 °F 81.7 °F 57.0 °F 42% 30.14 in 10.0 mi ENE 8.1 mph - N/A   Mostly Cloudy
5:53 PM 82.0 °F 81.6 °F 55.9 °F 41% 30.13 in 10.0 mi East 4.6 mph - N/A   Clear
6:53 PM 81.0 °F 80.7 °F 55.0 °F 41% 30.13 in 10.0 mi East 9.2 mph - N/A   Clear
7:53 PM 78.1 °F - 53.1 °F 42% 30.13 in 10.0 mi East 4.6 mph - N/A   Clear
8:53 PM 70.0 °F - 57.9 °F 65% 30.14 in 10.0 mi Calm Calm - N/A   Clear
9:53 PM 66.9 °F - 57.0 °F 70% 30.15 in 10.0 mi NNE 4.6 mph - N/A   Clear
10:53 PM 64.0 °F - 57.0 °F 78% 30.17 in 10.0 mi NNE 3.5 mph - N/A   Clear
11:53 PM 62.1 °F - 57.0 °F 84% 30.17 in 10.0 mi NE 3.5 mph - N/A   Mostly Cloudy